Elkins, WV

8:05 PM EDT on September 20, 2017 (GMT -0400)
Elkins-Randolph County

Weather History for KEKN - August, 2013

Change the Weather History Date:

Saturday, August 17, 2013

  Actual Average Record
Temperature  
Mean Temperature 62 °F 69 °F  
Max Temperature 74 °F 80 °F 93 °F (1988)
Min Temperature 49 °F 58 °F 41 °F (1979)
Degree Days  
Heating Degree Days 3 1  
Month to date heating degree days 19 2  
Since 1 June heating degree days 35 69  
Since 1 July heating degree days 23 14  
Cooling Degree Days 0 5  
Month to date cooling degree days 70 85  
Year to date cooling degree days 400 366  
Since 1 June cooling degree days 375 343  
Growing Degree Days 10 (Base 50)    
Moisture  
Dew Point 52 °F    
Average Humidity 71    
Maximum Humidity 96    
Minimum Humidity 46    
Precipitation  
Precipitation T in 0.12 in 2.07 in (1915)
Month to date precipitation 3.54 2.21  
Year to date precipitation 28.42 31.18  
Snow  
Snow 0.00 in - - ()
Month to date snowfall 0.0  
Since 1 September snowfall 77.5  
Snow Depth 0.00 in    
Sea Level Pressure  
Sea Level Pressure 30.25 in    
Wind  
Wind Speed 3 mph (SE)    
Max Wind Speed 13 mph    
Max Gust Speed 18 mph    
Visibility 7 miles    
Events Fog    
T = Trace of Precipitation, MM = Missing Value Source: NWS Daily Summary

Daily Weather History Graph

Daily Weather History Graph

Search for Another Location

Airport or City:

Trip Planner

Search our weather history database for the weather conditions in past years. The results will help you decide how hot, cold, wet, or windy it might be!

Date:

Astronomy

Aug. 17, 2013 Rise Set
Actual Time 6:35 AM EDT 8:11 PM EDT
Civil Twilight 6:06 AM EDT 8:39 PM EDT
Nautical Twilight 5:32 AM EDT 9:13 PM EDT
Astronomical Twilight 4:56 AM EDT 9:49 PM EDT
Moon 5:24 PM EDT (8/17) 2:37 AM EDT (8/17)
Length of Visible Light 14h 32m
Length of Day
13h 36m
Waxing Gibbous, 84% of the Moon is Illuminated
Aug 17
Waxing Gibbous
Aug 20
Full
Aug 28
Last Quarter
Sep 5
New
Sep 12
First Quarter

Hourly Weather History & Observations

Time (EDT) Temp. Dew Point Humidity Pressure Visibility Wind Dir Wind Speed Gust Speed Precip Events Conditions
12:51 AM 54.0 °F 52.0 °F 93% 30.22 in 10.0 mi Calm Calm - N/A   Clear
1:51 AM 53.1 °F 51.1 °F 93% 30.23 in 10.0 mi Calm Calm - N/A   Clear
2:51 AM 53.1 °F 51.1 °F 93% 30.22 in 10.0 mi Calm Calm - N/A   Clear
3:51 AM 51.1 °F 50.0 °F 96% 30.24 in 9.0 mi Calm Calm - N/A   Clear
4:48 AM 50.0 °F 48.2 °F 94% 30.25 in 2.0 mi Calm Calm - N/A   Scattered Clouds
4:49 AM 50.0 °F 48.2 °F 94% 30.25 in 1.5 mi Calm Calm - N/A   Scattered Clouds
4:51 AM 50.0 °F 48.9 °F 96% 30.24 in 1.0 mi Calm Calm - N/A   Mist
5:00 AM 50.0 °F 48.2 °F 94% 30.24 in 0.8 mi Calm Calm - N/A   Mist
5:09 AM 51.8 °F 48.2 °F 88% 30.24 in 1.0 mi Calm Calm - N/A   Mist
5:27 AM 50.0 °F 48.2 °F 94% 30.25 in 0.5 mi Calm Calm - N/A Fog Fog
5:51 AM 50.0 °F 48.9 °F 96% 30.25 in 1.8 mi Calm Calm - N/A   Overcast
6:20 AM 48.2 °F 48.2 °F 100% 30.26 in 0.8 mi Calm Calm - N/A   Mist
6:51 AM 50.0 °F 48.0 °F 93% 30.27 in 0.2 mi Calm Calm - N/A Fog Fog
7:51 AM 51.1 °F 50.0 °F 96% 30.28 in 0.5 mi Calm Calm - N/A Fog Fog
8:04 AM 51.8 °F 50.0 °F 94% 30.28 in 1.2 mi Calm Calm - N/A   Overcast
8:10 AM 51.8 °F 50.0 °F 94% 30.28 in 3.0 mi Calm Calm - N/A   Overcast
8:17 AM 51.8 °F 50.0 °F 94% 30.28 in 1.5 mi Calm Calm - N/A   Overcast
8:30 AM 53.6 °F 51.8 °F 94% 30.28 in 3.0 mi Calm Calm - N/A   Mostly Cloudy
8:43 AM 55.4 °F 53.6 °F 94% 30.28 in 10.0 mi Calm Calm - N/A   Scattered Clouds
8:51 AM 55.9 °F 53.1 °F 90% 30.28 in 10.0 mi Calm Calm - N/A   Partly Cloudy
9:51 AM 64.9 °F 54.0 °F 68% 30.26 in 10.0 mi Variable 4.6 mph - N/A   Clear
10:51 AM 69.1 °F 51.1 °F 53% 30.25 in 10.0 mi SE 10.4 mph - N/A   Clear
11:51 AM 72.0 °F 51.1 °F 48% 30.26 in 10.0 mi SE 9.2 mph - N/A   Clear
12:51 PM 72.0 °F 52.0 °F 49% 30.25 in 10.0 mi SSE 5.8 mph - N/A   Clear
1:51 PM 73.0 °F 51.1 °F 46% 30.24 in 10.0 mi SE 8.1 mph - N/A   Clear
2:51 PM 73.9 °F 54.0 °F 50% 30.23 in 10.0 mi Variable 3.5 mph - N/A   Scattered Clouds
3:51 PM 73.9 °F 53.1 °F 48% 30.22 in 10.0 mi ESE 3.5 mph - N/A   Clear
4:51 PM 72.0 °F 54.0 °F 53% 30.23 in 10.0 mi Variable 5.8 mph - N/A   Overcast
5:51 PM 71.1 °F 55.0 °F 57% 30.24 in 10.0 mi Variable 6.9 mph - N/A   Mostly Cloudy
6:51 PM 70.0 °F 55.0 °F 59% 30.24 in 10.0 mi Calm Calm - N/A   Overcast
7:51 PM 68.0 °F 55.9 °F 65% 30.25 in 10.0 mi Calm Calm - N/A   Overcast
8:51 PM 66.9 °F 55.9 °F 68% 30.25 in 10.0 mi Calm Calm - N/A   Mostly Cloudy
9:51 PM 66.0 °F 55.9 °F 70% 30.24 in 10.0 mi Calm Calm - N/A   Mostly Cloudy
10:51 PM 66.0 °F 55.9 °F 70% 30.23 in 10.0 mi Calm Calm - N/A   Overcast
11:51 PM 66.0 °F 54.0 °F 65% 30.22 in 10.0 mi SSE 3.5 mph - N/A   Overcast